FLOCK 3P-13 (42040 NORAD) Tracking and Keplerian Element Data

This shows tracking and keplerian element data for the satellite.

Feedback or suggestion? Click here.




ElementValue
Catalog42040
NameFLOCK 3P-13
Epoch Orbit5460
Epoch Day45.59625442
Epoch Year2018
RAAN111.2089
Inclination97.4664
Eccentricity0.0009326
Argument of Perigee89.4026
Mean Anonmoly270.8279
Mean Motion15.23812843
Decay Rate2.509E-05
L11 42040U 17008CW 18045.59625442 .00002509 00000-0 10705-3 0 9993
L22 42040 97.4664 111.2089 0009326 89.4026 270.8279 15.23812843 54606

Live tracking and technical data element details for FLOCK 3P-13 (NORAD 42040). FLOCK 3P-13 can be tracked NOW for your location showing map with azimuth and elevation plus other details from your city location.

Track the satellite on the map from your city or location and see movement details for azimuth, elevation, latitude, longitude, range, height, and movement on the map or in text.







IsCatalogInMostPopularTable: catalog: 42040, numindb: 149
Update: records affected: 1



GetName: 42040 FLOCK 3P-13

Hit Count: updated at: Sun, 16 Dec 2018 09:57:27 GMT